{"data":{"norad_id":63329,"intl_designator":"2025-057Y","name":"STARLINK-33674","alt_names":[],"object_type":"PAYLOAD","status":"ACTIVE","operator":null,"country":"US","launch_date":"2025-03-18","launch_site_code":"AFETR","launch_vehicle":null,"mission":null,"orbit_class":"UNKNOWN","rcs_meters":null,"size_class":null,"mass_kg":null,"dimensions":null,"purposes":["comms"],"wikipedia_slug":null,"has_3d_model":false,"image_url":null,"decayed_at":null,"tle_current":{"epoch":"2026-09-20T14:05:06.282528Z","epoch_age_seconds":151378,"freshness":"FRESH","line1":"1 63329U 25057Y   26263.58687827  .00011827  00000+0  43848-3 0  9990","line2":"2 63329  42.9972  10.2406 0000545 253.4149 106.6643 15.27590755 85581","mean_motion":15.27590755,"eccentricity":5.45e-5,"inclination_deg":42.9972,"raan_deg":10.2406,"arg_perigee_deg":253.4149,"mean_anomaly_deg":106.6643,"bstar":0.00043848,"rev_number":8558,"period_min":94.266085028775,"perigee_km":482.6429590024,"apogee_km":483.39082477662,"semimajor_km":6861.1538918895,"source":"CELESTRAK","updated_at":"2026-09-21T09:00:34.971581Z"}}}